Retour au catalogue

SL-8 DEB

ActifPO
NORAD 12404·DEBRIS·🇷🇺 Russia

Lancé Mar 17, 1980 depuis Plesetsk Cosmodrome

Loading…

Prochains Passages (prochaines 24 heures)

TLE

FraisSource: Space-Track

Époque: Sep 14, 2026, 14:10 UTC

1 12404U 80022C   26257.59086483  .00003922  00000-0  75914-3 0  9993
2 12404  82.9043 127.7592 0008789 107.3988 252.8179 14.63120306380236

Suivez SL-8 DEB en temps réel avec AllMySat

Download on the App Store